Home > Weather > Gatineau > Past weeks

Flag for Canada Past Weather in Gatineau, Quebec, Canada — Yesterday and Last 2 Weeks

Now
57 °F

Passing clouds.


Feels Like: 56 °F
Forecast: 58 / 87 °F
Wind: 6 mph from South

Location: Ottawa Int'L. Ont.

Current Time: Jun 25, 2016 at 6:41:05 AM

Latest Report: Jun 25, 2016 at 6:00 AM


Visibility: 15 mi

Pressure: 30.13 "Hg

Humidity: 77%

Dew Point: 50 °F

Location of GatineauLocation

Past Weather in Gatineau — Graph

°F

Gatineau Temperature Yesterday

Maximum temperature yesterday: 82 °F (at 5:00 PM)
Minimum temperature yesterday: 50 °F (at 5:00 AM)
Average temperature yesterday: 68 °F

High & Low Weather Summary for the Past Weeks

 TemperatureHumidityPressure
High91 °F (Jun 19, 3:00 PM)100% (Jun 11, 6:00 PM)30.21 "Hg (Jun 11, 6:00 PM)
Low43 °F (Jun 14, 5:00 AM)21% (Jun 17, 7:00 PM)29.51 "Hg (Jun 12, 12:00 AM)
Average66 °F56%29.92 "Hg
* Reported Jun 10 5:00 AM — Jun 25 5:00 AM, Gatineau, Weather by CustomWeather, © 2016

Note: Actual official high and low records may vary slightly from our data, if they occured in-between our weather recording intervals... More about our weather records

Advertising

Gatineau Weather History for the Previous 24 Hours

Scroll right to see more
 ConditionsComfort  
Time TempWeatherWind HumidityBarometerVisibility
5:00 AM
Sat, Jun 25
55 °FPassing clouds.3 mph77%30.12 "Hg15 mi
4:00 AM63 °FClear.5 mph64%30.11 "Hg15 mi
3:00 AM63 °FPassing clouds.6 mph64%30.11 "Hg15 mi
2:00 AM63 °FPassing clouds.6 mph68%30.11 "Hg15 mi
1:00 AM63 °FPassing clouds.5 mph68%30.11 "Hg15 mi
12:00 AM64 °FPassing clouds.5 mph64%30.10 "Hg15 mi
11:00 PM
Fri, Jun 24
66 °FPassing clouds.5 mph64%30.10 "Hg15 mi
10:00 PM68 °FPassing clouds.7 mph56%30.09 "Hg15 mi
9:00 PM70 °FScattered clouds.6 mph53%30.08 "Hg15 mi
8:00 PM75 °FPassing clouds.6 mph47%30.06 "Hg15 mi
7:00 PM81 °FPassing clouds.3 mph32%30.06 "Hg15 mi
6:00 PM81 °FScattered clouds.3 mph32%30.06 "Hg15 mi
5:00 PM82 °FScattered clouds.3 mph30%30.06 "Hg15 mi
4:00 PM81 °FPartly sunny.5 mph32%30.07 "Hg15 mi
3:00 PM81 °FScattered clouds.3 mph32%30.08 "Hg15 mi
2:00 PM81 °FPassing clouds.8 mph30%30.09 "Hg15 mi
1:00 PM77 °FPassing clouds.2 mph32%30.09 "Hg15 mi
12:00 PM77 °FPassing clouds.5 mph34%30.09 "Hg15 mi
11:00 AM73 °FPassing clouds.2 mph36%30.09 "Hg15 mi
10:00 AM72 °FPassing clouds.5 mph41%30.09 "Hg15 mi
9:00 AM68 °FPassing clouds.2 mph53%30.10 "Hg15 mi
8:00 AM64 °FPassing clouds.3 mph56%30.08 "Hg15 mi
7:00 AM61 °FPassing clouds.3 mph68%30.06 "Hg15 mi
6:00 AM50 °FPassing clouds.No wind94%30.04 "Hg15 mi
Weather by CustomWeather, © 2016

See weather overviewHow to use our weather pages